This is the latest recevied weather packets stored in our database for station/object OK1KZE-6. If no packets are shown the sender has not sent any weather packets the latest 1 day(s).
| Time | Temp. | Humidity | Pressure | Rain* | Wind** | Luminosity | Snow |
|---|---|---|---|---|---|---|---|
| 1778064008 | 16.67° C | 70% | 1009.8 hPa | - | - | - | - |
| 1778063708 | 16.67° C | 70% | 1009.7 hPa | - | - | - | - |
| 1778063408 | 16.67° C | 69% | 1009.6 hPa | - | - | - | - |
| 1778063108 | 16.67° C | 70% | 1009.7 hPa | - | - | - | - |
| 1778062808 | 16.11° C | 69% | 1009.6 hPa | - | - | - | - |
| 1778062208 | 16.67° C | 69% | 1009.7 hPa | - | - | - | - |
| 1778061609 | 16.11° C | 71% | 1009.5 hPa | - | - | - | - |
| 1778061009 | 16.11° C | 71% | 1009.6 hPa | - | - | - | - |
| 1778060709 | 16.11° C | 71% | 1009.4 hPa | - | - | - | - |
| 1778060108 | 15.56° C | 71% | 1009.6 hPa | - | - | - | - |
| 1778058608 | 15° C | 74% | 1009.6 hPa | - | - | - | - |
| 1778058308 | 15° C | 74% | 1009.6 hPa | - | - | - | - |
| 1778057408 | 15° C | 76% | 1009.5 hPa | - | - | - | - |
| 1778056808 | 15° C | 78% | 1009.5 hPa | - | - | - | - |
| 1778056208 | 14.44° C | 79% | 1009.5 hPa | - | - | - | - |
| 1778055008 | 13.89° C | 81% | 1009.4 hPa | - | - | - | - |
| 1778054407 | 13.89° C | 82% | 1009.5 hPa | - | - | - | - |
| 1778054108 | 13.89° C | 83% | 1009.6 hPa | - | - | - | - |
| 1778052308 | 13.33° C | 86% | 1009.6 hPa | - | - | - | - |
| 1778052008 | 13.33° C | 87% | 1009.4 hPa | - | - | - | - |
| 1778051708 | 13.33° C | 86% | 1009.4 hPa | - | - | - | - |
| 1778051108 | 12.78° C | 88% | 1009.2 hPa | - | - | - | - |
| 1778050508 | 12.78° C | 88% | 1009.2 hPa | - | - | - | - |
| 1778050208 | 12.78° C | 88% | 1009.1 hPa | - | - | - | - |
| 1778049308 | 12.78° C | 91% | 1009.1 hPa | - | - | - | - |
* Rain since midnight (hover to see other rain measurements)
** Current wind speed in m/s (hover to see current wind gust speed)